| time (UTC) | temp F | wind direction | speed MPH | gust MPH | rain 1hr in | rain 24hr in | rain mn in | humidity % | barometer mb |
| 20260504000301 | 69 | 195 | 3.0 | 8.0 | 0.00 | 0.03 | 0.03 | 55 | 1015.8 |
| 20260503235800 | 69 | 126 | 4.0 | 8.0 | 0.00 | 0.03 | 0.03 | 55 | 1015.8 |
| 20260503235305 | 69 | 130 | 4.0 | 9.0 | 0.00 | 0.03 | 0.03 | 56 | 1015.8 |
| 20260503234801 | 69 | 147 | 4.0 | 9.0 | 0.00 | 0.03 | 0.03 | 57 | 1015.8 |
| 20260503234301 | 69 | 147 | 3.0 | 9.0 | 0.00 | 0.03 | 0.03 | 57 | 1015.8 |
| 20260503233801 | 69 | 115 | 3.0 | 7.0 | 0.00 | 0.03 | 0.03 | 58 | 1015.9 |
| 20260503233301 | 70 | 121 | 4.0 | 8.0 | 0.00 | 0.03 | 0.03 | 57 | 1015.9 |
| 20260503232301 | 70 | 122 | 4.0 | 8.0 | 0.00 | 0.03 | 0.03 | 57 | 1015.8 |
| 20260503231300 | 70 | 71 | 4.0 | 8.0 | 0.00 | 0.03 | 0.03 | 57 | 1015.9 |
| 20260503230802 | 70 | 69 | 4.0 | 8.0 | 0.00 | 0.03 | 0.03 | 56 | 1015.9 |
| 20260503230301 | 70 | 79 | 4.0 | 8.0 | 0.00 | 0.03 | 0.03 | 56 | 1015.8 |
| 20260503225801 | 71 | 137 | 4.0 | 9.0 | 0.00 | 0.03 | 0.03 | 56 | 1015.7 |
| 20260503225304 | 71 | 88 | 5.0 | 9.0 | 0.00 | 0.03 | 0.03 | 55 | 1015.7 |
| 20260503224800 | 71 | 99 | 4.0 | 10.0 | 0.00 | 0.03 | 0.03 | 56 | 1015.7 |
| 20260503224300 | 71 | 84 | 4.0 | 10.0 | 0.00 | 0.03 | 0.03 | 55 | 1015.7 |
| 20260503223801 | 71 | 89 | 3.0 | 9.0 | 0.00 | 0.03 | 0.03 | 55 | 1015.7 |
| 20260503223301 | 71 | 128 | 3.0 | 10.0 | 0.00 | 0.03 | 0.03 | 55 | 1015.8 |
| 20260503222801 | 71 | 66 | 4.0 | 10.0 | 0.00 | 0.03 | 0.03 | 54 | 1015.8 |
| 20260503222304 | 71 | 110 | 4.0 | 11.0 | 0.00 | 0.03 | 0.03 | 55 | 1015.7 |
| 20260503221301 | 71 | 90 | 6.0 | 11.0 | 0.00 | 0.03 | 0.03 | 54 | 1015.7 |
| 20260503220801 | 71 | 83 | 5.0 | 10.0 | 0.00 | 0.03 | 0.03 | 54 | 1015.6 |
| 20260503220301 | 72 | 197 | 4.0 | 9.0 | 0.00 | 0.03 | 0.03 | 54 | 1015.6 |
| 20260503215801 | 72 | 348 | 4.0 | 9.0 | 0.00 | 0.03 | 0.03 | 54 | 1015.6 |
| 20260503215304 | 72 | 134 | 4.0 | 9.0 | 0.00 | 0.03 | 0.03 | 53 | 1015.6 |
| 20260503214800 | 72 | 31 | 4.0 | 9.0 | 0.00 | 0.03 | 0.03 | 55 | 1015.7 |
| 20260503214300 | 72 | 357 | 4.0 | 8.0 | 0.00 | 0.03 | 0.03 | 53 | 1015.6 |
| 20260503213801 | 71 | 89 | 3.0 | 7.0 | 0.00 | 0.03 | 0.03 | 54 | 1015.6 |
| 20260503212802 | 72 | 31 | 4.0 | 9.0 | 0.00 | 0.03 | 0.03 | 54 | 1015.5 |
| 20260503212304 | 72 | 359 | 4.0 | 9.0 | 0.00 | 0.03 | 0.03 | 53 | 1015.5 |
| 20260503211801 | 72 | 19 | 5.0 | 9.0 | 0.00 | 0.03 | 0.03 | 53 | 1015.5 |
| 20260503211302 | 72 | 61 | 5.0 | 9.0 | 0.00 | 0.03 | 0.03 | 55 | 1015.5 |
| 20260503210801 | 71 | 76 | 5.0 | 10.0 | 0.00 | 0.03 | 0.03 | 55 | 1015.6 |
| 20260503210301 | 72 | 81 | 6.0 | 10.0 | 0.00 | 0.03 | 0.03 | 55 | 1015.6 |
| 20260503205800 | 72 | 97 | 4.0 | 10.0 | 0.00 | 0.03 | 0.03 | 54 | 1015.6 |
| 20260503205300 | 72 | 128 | 4.0 | 9.0 | 0.00 | 0.03 | 0.03 | 53 | 1015.7 |
| 20260503204759 | 72 | 30 | 4.0 | 9.0 | 0.00 | 0.03 | 0.03 | 53 | 1015.7 |
| 20260503204300 | 72 | 0 | 3.0 | 8.0 | 0.00 | 0.03 | 0.03 | 55 | 1015.8 |
| 20260503203300 | 71 | 169 | 7.0 | 11.0 | 0.00 | 0.03 | 0.03 | 55 | 1015.9 |
| 20260503202801 | 72 | 103 | 6.0 | 11.0 | 0.00 | 0.03 | 0.03 | 55 | 1015.9 |
| 20260503201801 | 72 | 34 | 5.0 | 11.0 | 0.00 | 0.03 | 0.03 | 55 | 1016.1 |
| 20260503201300 | 72 | 23 | 5.0 | 11.0 | 0.00 | 0.03 | 0.03 | 55 | 1016.1 |
| 20260503200801 | 71 | 291 | 5.0 | 11.0 | 0.00 | 0.03 | 0.03 | 55 | 1016.0 |
| 20260503200301 | 72 | 134 | 5.0 | 10.0 | 0.00 | 0.03 | 0.03 | 53 | 1016.0 |
| 20260503195758 | 72 | 126 | 5.0 | 9.0 | 0.00 | 0.03 | 0.03 | 56 | 1016.1 |
| 20260503195258 | 72 | 102 | 3.0 | 9.0 | 0.00 | 0.03 | 0.03 | 56 | 1016.2 |
| 20260503194758 | 71 | 17 | 2.0 | 8.0 | 0.00 | 0.03 | 0.03 | 56 | 1016.3 |
| 20260503194258 | 71 | 10 | 3.0 | 8.0 | 0.00 | 0.03 | 0.03 | 55 | 1016.4 |
| 20260503193757 | 71 | 69 | 4.0 | 9.0 | 0.00 | 0.03 | 0.03 | 55 | 1016.5 |
| 20260503192759 | 71 | 105 | 5.0 | 10.0 | 0.00 | 0.03 | 0.03 | 55 | 1016.6 |
| 20260503190759 | 72 | 97 | 6.0 | 11.0 | 0.00 | 0.03 | 0.03 | 54 | 1016.8 |
| 20260503190300 | 72 | 79 | 4.0 | 11.0 | 0.00 | 0.03 | 0.03 | 55 | 1017.0 |
| 20260503185800 | 72 | 145 | 3.0 | 7.0 | 0.00 | 0.03 | 0.03 | 54 | 1017.1 |
| 20260503185300 | 72 | 42 | 4.0 | 12.0 | 0.00 | 0.03 | 0.03 | 53 | 1017.1 |
| 20260503184755 | 72 | 38 | 5.0 | 12.0 | 0.00 | 0.03 | 0.03 | 53 | 1017.1 |
| 20260503184256 | 72 | 13 | 4.0 | 10.0 | 0.00 | 0.03 | 0.03 | 53 | 1017.2 |
| 20260503183756 | 71 | 278 | 3.0 | 10.0 | 0.00 | 0.03 | 0.03 | 52 | 1017.3 |
| 20260503183256 | 70 | 60 | 2.0 | 9.0 | 0.00 | 0.03 | 0.03 | 56 | 1017.3 |
| 20260503182756 | 71 | 110 | 3.0 | 9.0 | 0.00 | 0.03 | 0.03 | 57 | 1017.3 |
| 20260503182256 | 72 | 87 | 4.0 | 9.0 | 0.00 | 0.03 | 0.03 | 56 | 1017.4 |
| 20260503181756 | 73 | 118 | 4.0 | 9.0 | 0.00 | 0.03 | 0.03 | 53 | 1017.4 |
| 20260503181257 | 72 | 124 | 3.0 | 9.0 | 0.00 | 0.03 | 0.03 | 52 | 1017.4 |
| 20260503180258 | 71 | 97 | 5.0 | 11.0 | 0.00 | 0.03 | 0.03 | 57 | 1017.5 |
| 20260503175757 | 72 | 78 | 4.0 | 11.0 | 0.00 | 0.03 | 0.03 | 55 | 1017.5 |
| 20260503175257 | 71 | 22 | 2.0 | 8.0 | 0.00 | 0.03 | 0.03 | 53 | 1017.6 |
| 20260503174254 | 71 | 51 | 5.0 | 13.0 | 0.00 | 0.03 | 0.03 | 56 | 1017.7 |
| 20260503173254 | 73 | 100 | 3.0 | 9.0 | 0.00 | 0.03 | 0.03 | 53 | 1017.7 |
| 20260503172255 | 70 | 335 | 3.0 | 10.0 | 0.00 | 0.03 | 0.03 | 54 | 1017.8 |
| 20260503171755 | 71 | 128 | 3.0 | 11.0 | 0.00 | 0.03 | 0.03 | 55 | 1017.8 |
| 20260503171254 | 71 | 351 | 4.0 | 13.0 | 0.00 | 0.03 | 0.03 | 59 | 1018.0 |
| 20260503170255 | 71 | 320 | 5.0 | 10.0 | 0.00 | 0.03 | 0.03 | 54 | 1018.1 |
| 20260503150246 | 65 | 16 | 4.0 | 9.0 | 0.00 | 0.22 | 0.03 | 79 | 1018.6 |
| 20260503140240 | 58 | 4 | 5.0 | 9.0 | 0.00 | 0.69 | 0.03 | 93 | 1018.3 |
| 20260503130741 | 56 | 19 | 5.0 | 10.0 | 0.03 | 0.74 | 0.03 | 99 | 1018.1 |
| 20260503130241 | 56 | 329 | 4.0 | 10.0 | 0.03 | 0.74 | 0.03 | 99 | 1018.1 |
| 20260503110731 | 53 | 0 | 0.0 | 0.0 | 0.00 | 0.71 | 0.00 | 99 | 1016.9 |
| 20260503110229 | 52 | 0 | 0.0 | 0.0 | 0.00 | 0.71 | 0.00 | 99 | 1016.7 |
| 20260503100226 | 54 | 0 | 0.0 | 1.0 | 0.00 | 0.71 | 0.00 | 99 | 1015.8 |
| 20260503090210 | 56 | 0 | 0.0 | 2.0 | 0.00 | 0.71 | 0.00 | 100 | 1015.3 |
| 20260503080201 | 56 | 325 | 4.0 | 7.0 | 0.00 | 0.71 | 0.00 | 100 | 1015.4 |
| 20260503072701 | 57 | 324 | 4.0 | 10.0 | 0.00 | 0.71 | 0.00 | 99 | 1015.2 |
| 20260503072202 | 57 | 326 | 4.0 | 10.0 | 0.00 | 0.71 | 0.00 | 99 | 1015.3 |
| 20260503071701 | 57 | 346 | 4.0 | 8.0 | 0.00 | 0.71 | 0.00 | 99 | 1015.3 |
| 20260503070701 | 57 | 314 | 2.0 | 5.0 | 0.00 | 0.71 | 0.00 | 99 | 1015.2 |
| 20260503070203 | 57 | 303 | 2.0 | 3.0 | 0.00 | 0.71 | 0.00 | 99 | 1015.3 |
| 20260503060202 | 57 | 284 | 1.0 | 2.0 | 0.00 | 0.71 | 0.00 | 99 | 1014.7 |
| 20260503054201 | 57 | 333 | 1.0 | 3.0 | 0.00 | 0.71 | 0.00 | 98 | 1014.6 |
| 20260503053702 | 57 | 336 | 2.0 | 3.0 | 0.00 | 0.71 | 0.00 | 98 | 1014.4 |
| 20260503052702 | 57 | 294 | 2.0 | 3.0 | 0.00 | 0.71 | 0.00 | 98 | 1014.4 |
| 20260503051702 | 57 | 328 | 1.0 | 2.0 | 0.00 | 0.71 | 0.00 | 98 | 1014.5 |
| 20260503051201 | 57 | 336 | 1.0 | 2.0 | 0.00 | 0.71 | 0.00 | 98 | 1014.5 |
| 20260503050700 | 58 | 291 | 0.0 | 2.0 | 0.00 | 0.71 | 0.00 | 98 | 1014.6 |
| 20260503050203 | 58 | 0 | 0.0 | 2.0 | 0.00 | 0.71 | 0.00 | 98 | 1014.6 |
| 20260503045201 | 58 | 267 | 1.0 | 2.0 | 0.00 | 0.71 | 0.00 | 98 | 1014.6 |
| 20260503044701 | 58 | 0 | 0.0 | 2.0 | 0.00 | 0.71 | 0.00 | 98 | 1014.4 |
| 20260503044201 | 58 | 319 | 0.0 | 2.0 | 0.00 | 0.71 | 0.00 | 98 | 1014.4 |
| 20260503043702 | 58 | 323 | 0.0 | 2.0 | 0.00 | 0.71 | 0.00 | 97 | 1014.4 |
| 20260503042701 | 58 | 0 | 0.0 | 2.0 | 0.00 | 0.71 | 0.00 | 97 | 1014.2 |
| 20260503042201 | 58 | 0 | 1.0 | 2.0 | 0.00 | 0.71 | 0.00 | 97 | 1014.2 |
| 20260503041700 | 59 | 311 | 1.0 | 2.0 | 0.00 | 0.71 | 0.00 | 97 | 1014.1 |
| 20260503040701 | 59 | 357 | 2.0 | 3.0 | 0.00 | 0.71 | 0.00 | 97 | 1014.0 |
| 20260503040201 | 59 | 260 | 2.0 | 3.0 | 0.00 | 0.71 | 0.00 | 97 | 1014.0 |
| 20260503035701 | 59 | 327 | 2.0 | 4.0 | 0.00 | 0.71 | 0.71 | 97 | 1013.9 |
| 20260503035201 | 59 | 320 | 3.0 | 4.0 | 0.00 | 0.71 | 0.71 | 97 | 1013.8 |
| 20260503034700 | 59 | 344 | 2.0 | 4.0 | 0.00 | 0.71 | 0.71 | 97 | 1013.7 |
| 20260503034201 | 59 | 314 | 2.0 | 4.0 | 0.00 | 0.71 | 0.71 | 97 | 1013.8 |
| 20260503033701 | 59 | 332 | 2.0 | 4.0 | 0.00 | 0.71 | 0.71 | 97 | 1013.8 |
| 20260503033201 | 60 | 339 | 2.0 | 4.0 | 0.00 | 0.71 | 0.71 | 96 | 1013.8 |
| 20260503032701 | 60 | 342 | 2.0 | 4.0 | 0.00 | 0.71 | 0.71 | 96 | 1013.8 |
| 20260503031701 | 60 | 321 | 2.0 | 6.0 | 0.00 | 0.71 | 0.71 | 96 | 1013.8 |
| 20260503031200 | 60 | 0 | 3.0 | 8.0 | 0.00 | 0.71 | 0.71 | 96 | 1013.7 |
| 20260503030700 | 60 | 332 | 3.0 | 8.0 | 0.00 | 0.71 | 0.71 | 96 | 1013.6 |
| 20260503030201 | 60 | 324 | 2.0 | 4.0 | 0.00 | 0.71 | 0.71 | 96 | 1013.5 |
| 20260503025701 | 60 | 343 | 2.0 | 5.0 | 0.00 | 0.71 | 0.71 | 96 | 1013.4 |
| 20260503025201 | 60 | 299 | 2.0 | 5.0 | 0.00 | 0.71 | 0.71 | 96 | 1013.3 |
| 20260503024701 | 60 | 35 | 3.0 | 4.0 | 0.00 | 0.71 | 0.71 | 96 | 1013.3 |
| 20260503024201 | 61 | 13 | 3.0 | 5.0 | 0.00 | 0.71 | 0.71 | 96 | 1013.2 |
| 20260503023701 | 61 | 324 | 3.0 | 5.0 | 0.00 | 0.71 | 0.71 | 96 | 1013.2 |
| 20260503023202 | 60 | 351 | 3.0 | 5.0 | 0.00 | 0.71 | 0.71 | 96 | 1013.2 |
| 20260503022701 | 61 | 307 | 2.0 | 5.0 | 0.00 | 0.71 | 0.71 | 96 | 1013.2 |
| 20260503021701 | 61 | 324 | 2.0 | 5.0 | 0.00 | 0.71 | 0.71 | 96 | 1013.1 |
| 20260503021202 | 61 | 346 | 2.0 | 4.0 | 0.00 | 0.71 | 0.71 | 96 | 1013.0 |
| 20260503020701 | 61 | 355 | 2.0 | 5.0 | 0.00 | 0.71 | 0.71 | 96 | 1013.0 |
| 20260503020201 | 61 | 345 | 2.0 | 5.0 | 0.00 | 0.71 | 0.71 | 96 | 1013.0 |
| 20260503015701 | 61 | 323 | 2.0 | 5.0 | 0.00 | 0.71 | 0.71 | 96 | 1013.0 |
| 20260503015202 | 61 | 306 | 3.0 | 5.0 | 0.00 | 0.71 | 0.71 | 97 | 1012.9 |
| 20260503014701 | 61 | 341 | 3.0 | 7.0 | 0.00 | 0.71 | 0.71 | 97 | 1012.9 |
| 20260503014201 | 61 | 290 | 4.0 | 7.0 | 0.00 | 0.71 | 0.71 | 97 | 1012.8 |
| 20260503013702 | 61 | 279 | 3.0 | 7.0 | 0.00 | 0.71 | 0.71 | 97 | 1012.7 |
| 20260503012702 | 61 | 3 | 4.0 | 6.0 | 0.00 | 0.71 | 0.71 | 97 | 1012.6 |
| 20260503012201 | 61 | 347 | 3.0 | 6.0 | 0.00 | 0.71 | 0.71 | 97 | 1012.6 |
| 20260503011702 | 61 | 323 | 3.0 | 7.0 | 0.00 | 0.71 | 0.71 | 97 | 1012.4 |
| 20260503011202 | 61 | 0 | 4.0 | 9.0 | 0.00 | 0.71 | 0.71 | 97 | 1012.1 |
| 20260503010702 | 61 | 342 | 4.0 | 9.0 | 0.00 | 0.71 | 0.71 | 96 | 1011.8 |
| 20260503005701 | 62 | 5 | 3.0 | 4.0 | 0.00 | 0.71 | 0.71 | 95 | 1011.4 |
| 20260503005202 | 62 | 22 | 3.0 | 6.0 | 0.00 | 0.71 | 0.71 | 95 | 1011.4 |
| 20260503004702 | 0 | 305 | 3.0 | 6.0 | 0.00 | 0.71 | 0.71 | ||
| 20260503003701 | 0 | 352 | 4.0 | 0.0 | 0.00 | 0.71 | 0.71 | ||
| 20260503003202 | 0 | 352 | 4.0 | 3.0 | 0.00 | 0.71 | 0.71 | ||
| 20260503002702 | 0 | 352 | 4.0 | 5.0 | 0.00 | 0.71 | 0.71 | ||
| 20260503002201 | 62 | 311 | 3.0 | 5.0 | 0.00 | 0.71 | 0.71 | 95 | 1011.4 |
| 20260503001707 | 62 | 253 | 4.0 | 6.0 | 0.00 | 0.71 | 0.71 | 95 | 1011.4 |
| 20260503001201 | 62 | 291 | 4.0 | 9.0 | 0.00 | 0.71 | 0.71 | 95 | 1011.4 |
| 20260503000701 | 62 | 311 | 5.0 | 9.0 | 0.00 | 0.71 | 0.71 | 95 | 1011.3 |